Port Angeles, WA
on Sunday, January 27, 2013

Sunday
Previous Day Next Day
Daily Summary
 ActualAverageRecord
Temperature
Mean Temperature °F °F  
Max Temperature 43°F 45°F 53°F (1962)
Min Temperature 37°F 32°F 10°F (1972)
Degree Days
Heating Degree Days 25    
Moisture
Dew Point 36°F   
Average Humidity 82    
Maximum Humidity 97    
Minimum Humidity 70    
Precipitation
Precipitation 0.01 in in in ()
Wind
Wind Speed 5 mph   
Max Wind Speed 10 mph   
Max Gust Speed mph   
Visibility 10 miles   
Events Rain   
Averages and records for this station are not official NWS values.
Key: T is trace of precipitation, MM is missing value
Source: NWS Daily Summary
Seasonal Weather Averages
Time(PST)TemperatureDew PointHumidity Pressure Visibility Wind DirectionWind SpeedGust SpeedPrecipitationEvents Conditions
12:02 AM 39.9°F 36.0°F 86% 30.01 in 10.0 miles WSW 5.8 mph - N/A   Overcast
12:53 AM 37.9°F 34.0°F 86% 30.01 in 10.0 miles WSW 6.9 mph - N/A   Mostly Cloudy
1:53 AM 39.0°F 34.0°F 82% 30.01 in 10.0 miles WSW 8.1 mph - N/A   Mostly Cloudy
2:53 AM 39.9°F 33.1°F 77% 30.02 in 10.0 miles West 8.1 mph - N/A   Overcast
3:53 AM 39.0°F 33.1°F 79% 30.01 in 10.0 miles West 9.2 mph - N/A   Mostly Cloudy
4:53 AM 37.9°F 32.0°F 79% 30.01 in 10.0 miles WSW 10.4 mph - 0.00 in   Clear
5:53 AM 39.9°F 32.0°F 73% 30.00 in 10.0 miles WSW 10.4 mph - N/A   Mostly Cloudy
6:53 AM 39.9°F 32.0°F 73% 30.00 in 10.0 miles WSW 8.1 mph - N/A   Overcast
7:53 AM 42.1°F 33.1°F 70% 30.01 in 10.0 miles SSW 6.9 mph - 0.00 in   Overcast
8:53 AM 41.0°F 34.0°F 76% 30.02 in 10.0 miles WSW 6.9 mph - 0.00 in Rain Light Rain
9:53 AM 41.0°F 37.0°F 86% 30.02 in 10.0 miles Calm Calm - 0.00 in Rain Light Rain
10:53 AM 42.1°F 37.9°F 85% 30.02 in 10.0 miles Calm Calm - 0.00 in Rain Light Rain
11:53 AM 43.0°F 37.9°F 82% 30.01 in 10.0 miles Calm Calm - 0.00 in Rain Light Rain
12:28 PM 43.0°F 37.0°F 80% 29.99 in 10.0 miles Calm Calm - 0.00 in Rain Light Rain
12:48 PM 42.8°F 37.4°F 81% 29.98 in 10.0 miles Calm Calm - 0.00 in Rain Light Rain
12:53 PM 43.0°F 37.0°F 80% 29.99 in 10.0 miles Calm Calm - 0.00 in Rain Light Rain
1:42 PM 42.1°F 37.0°F 82% 29.98 in 8.0 miles Calm Calm - 0.00 in Rain Light Rain
1:53 PM 42.1°F 37.0°F 82% 29.98 in 10.0 miles Calm Calm - 0.01 in Rain Light Rain
2:10 PM 42.1°F 37.0°F 82% 29.97 in 10.0 miles Calm Calm - 0.00 in Rain Light Rain
2:53 PM 43.0°F 37.9°F 82% 29.98 in 10.0 miles Calm Calm - 0.00 in Rain Light Rain
3:53 PM 43.0°F 37.9°F 82% 29.98 in 10.0 miles SE 3.5 mph - 0.00 in   Overcast
4:53 PM 42.1°F 37.9°F 85% 29.97 in 10.0 miles Calm Calm - 0.00 in   Overcast
5:53 PM 39.9°F 39.0°F 97% 29.97 in 10.0 miles Calm Calm - N/A   Overcast
6:53 PM 41.0°F 37.9°F 89% 29.99 in 10.0 miles Calm Calm - 0.00 in Rain Light Rain
7:53 PM 41.0°F 37.0°F 86% 29.98 in 10.0 miles WSW 5.8 mph - 0.00 in Rain Light Rain
8:53 PM 41.0°F 37.0°F 86% 29.98 in 10.0 miles WSW 8.1 mph - 0.00 in   Overcast
9:53 PM 42.1°F 36.0°F 79% 29.98 in 10.0 miles West 9.2 mph - N/A   Overcast
10:53 PM 41.0°F 36.0°F 82% 29.98 in 10.0 miles WSW 8.1 mph - N/A   Overcast
11:53 PM 41.0°F 35.1°F 79% 30.00 in 10.0 miles WSW 9.2 mph - N/A   Overcast
Moon Phase
Jan. 27 Feb. 03 Feb. 10 Feb. 17 Feb. 25
Sunrise:07:47 AM (PST) Moon Rise:06:15 PM (PST)
Sunset:05:06 PM (PST) Moon Set:07:36 AM (PST)

Copyright © 2014 The Weather Underground, Inc.